AFL2359 UUEE-ULLI

Flight info

Callsign AFL2359
Flight time 1h 35m
Altitude 40000
Route TOKNU3H TOKNU L4 NUDKO T561 ODATI T875 GENPA GENPA1V
Aircraft B77W/H-SDE1E2E3FGHIJ2J3J4J5M1RWXY/LB1D1

Departure

Time 2026-05-03 20:59
Airport Sheremetyevo International Airport (UUEE)

Arrival

Time 2026-05-03 22:34
Airport Pulkovo Airport (ULLI)
Time Latitude Longitude Altitude Speed Heading
2026-05-03 20:15 55.96798 37.41718 622 ft 0 kts 209°
2026-05-03 20:39 55.96806 37.41731 622 ft 2 kts 234°
2026-05-03 20:39 55.96814 37.41753 621 ft 2 kts 238°
2026-05-03 20:40 55.96822 37.41777 621 ft 2 kts 240°
2026-05-03 20:40 55.96831 37.41797 621 ft 1 kts 211°
2026-05-03 20:40 55.96840 37.41804 621 ft 2 kts 195°
2026-05-03 20:40 55.96854 37.41806 620 ft 2 kts 163°
2026-05-03 20:41 55.96867 37.41794 620 ft 2 kts 133°
2026-05-03 20:41 55.96875 37.41772 620 ft 2 kts 103°
2026-05-03 20:41 55.96875 37.41748 621 ft 0 kts 76°
2026-05-03 20:41 55.96874 37.41740 621 ft 0 kts 73°
2026-05-03 20:46 55.96875 37.41745 621 ft 0 kts 73°
2026-05-03 20:46 55.96878 37.41764 620 ft 2 kts 74°
2026-05-03 20:46 55.96884 37.41799 620 ft 3 kts 74°
2026-05-03 20:46 55.96893 37.41855 619 ft 5 kts 68°
2026-05-03 20:47 55.96920 37.41908 619 ft 6 kts 22°
2026-05-03 20:47 55.96965 37.41920 618 ft 7 kts 13°
2026-05-03 20:47 55.96995 37.41978 617 ft 7 kts 74°
2026-05-03 20:47 55.97010 37.42078 616 ft 9 kts 74°
2026-05-03 20:48 55.97029 37.42194 614 ft 9 kts 74°
2026-05-03 20:48 55.97048 37.42315 613 ft 10 kts 74°
2026-05-03 20:48 55.97069 37.42450 611 ft 12 kts 74°
2026-05-03 20:48 55.97093 37.42601 608 ft 13 kts 74°
2026-05-03 20:49 55.97118 37.42767 606 ft 14 kts 74°
2026-05-03 20:49 55.97146 37.42945 603 ft 15 kts 75°
2026-05-03 20:49 55.97165 37.43082 603 ft 2 kts 78°
2026-05-03 20:49 55.97168 37.43111 603 ft 2 kts 76°
2026-05-03 20:50 55.97171 37.43130 603 ft 1 kts 76°
2026-05-03 20:50 55.97172 37.43140 603 ft 0 kts 76°
2026-05-03 20:50 55.97175 37.43164 603 ft 3 kts 76°
2026-05-03 20:50 55.97183 37.43223 604 ft 5 kts 76°
2026-05-03 20:51 55.97186 37.43245 604 ft 0 kts 76°
2026-05-03 20:52 55.97191 37.43283 604 ft 3 kts 76°
2026-05-03 20:52 55.97197 37.43322 604 ft 2 kts 76°
2026-05-03 20:52 55.97200 37.43350 605 ft 1 kts 76°
2026-05-03 20:53 55.97203 37.43372 605 ft 2 kts 76°
2026-05-03 20:53 55.97210 37.43425 605 ft 5 kts 76°
2026-05-03 20:53 55.97223 37.43514 606 ft 8 kts 76°
2026-05-03 20:53 55.97243 37.43629 608 ft 10 kts 72°
2026-05-03 20:54 55.97264 37.43754 610 ft 10 kts 72°
2026-05-03 20:54 55.97310 37.44029 616 ft 11 kts 76°
2026-05-03 20:54 55.97330 37.44173 618 ft 12 kts 76°
2026-05-03 20:55 55.97352 37.44324 618 ft 5 kts 69°
2026-05-03 20:55 55.97375 37.44381 620 ft 6 kts 37°
2026-05-03 20:55 55.97417 37.44407 621 ft 0 kts
2026-05-03 20:57 55.97435 37.44409 621 ft 4 kts
2026-05-03 20:57 55.97481 37.44409 620 ft 8 kts 354°
2026-05-03 20:57 55.97547 37.44360 620 ft 11 kts 308°
2026-05-03 20:58 55.97554 37.44271 620 ft 7 kts 259°
2026-05-03 20:58 55.97536 37.44159 620 ft 11 kts 254°
2026-05-03 20:58 55.97535 37.44149 620 ft 0 kts 253°
2026-05-03 20:58 55.97509 37.43986 619 ft 53 kts 253°
2026-05-03 20:59 55.97328 37.42789 611 ft 147 kts 252°
2026-05-03 20:59 55.97044 37.40574 794 ft 211 kts 260°
2026-05-03 20:59 55.96847 37.37848 1423 ft 240 kts 261°
2026-05-03 20:59 55.96467 37.34992 1822 ft 237 kts 256°
2026-05-03 21:00 55.96033 37.32148 2201 ft 238 kts 256°
2026-05-03 21:00 55.95749 37.30304 2445 ft 239 kts 256°
2026-05-03 21:00 55.95159 37.26487 2943 ft 242 kts 257°
2026-05-03 21:00 55.94703 37.23560 3316 ft 245 kts 257°
2026-05-03 21:01 55.94249 37.20659 3682 ft 246 kts 257°
2026-05-03 21:01 55.93781 37.17693 4057 ft 248 kts 257°
2026-05-03 21:01 55.93312 37.14745 4426 ft 250 kts 257°
2026-05-03 21:01 55.92831 37.11740 4814 ft 252 kts 257°
2026-05-03 21:02 55.92346 37.08748 5199 ft 254 kts 257°
2026-05-03 21:02 55.91857 37.05758 5662 ft 256 kts 258°
2026-05-03 21:02 55.91743 37.02619 6160 ft 255 kts 284°
2026-05-03 21:02 55.92460 36.99765 6663 ft 255 kts 309°
2026-05-03 21:03 55.93714 36.97541 7004 ft 259 kts 320°
2026-05-03 21:03 55.95154 36.95574 7014 ft 258 kts 324°
2026-05-03 21:03 55.96610 36.93741 7007 ft 259 kts 324°
2026-05-03 21:03 55.98095 36.91896 7012 ft 259 kts 324°
2026-05-03 21:04 55.99633 36.90243 7018 ft 259 kts 336°
2026-05-03 21:04 56.01302 36.89147 7006 ft 260 kts 340°
2026-05-03 21:04 56.03030 36.88109 7008 ft 261 kts 340°
2026-05-03 21:04 56.04755 36.87081 7000 ft 260 kts 340°
2026-05-03 21:05 56.06451 36.86069 7002 ft 261 kts 340°
2026-05-03 21:05 56.08151 36.84965 6965 ft 259 kts 332°
2026-05-03 21:05 56.09628 36.83089 6988 ft 259 kts 318°
2026-05-03 21:05 56.10946 36.80911 7001 ft 257 kts 317°
2026-05-03 21:06 56.12246 36.78725 6999 ft 257 kts 317°
2026-05-03 21:06 56.13540 36.76557 6994 ft 257 kts 317°
2026-05-03 21:06 56.14851 36.74361 6995 ft 256 kts 317°
2026-05-03 21:06 56.16160 36.72171 6987 ft 256 kts 317°
2026-05-03 21:07 56.17445 36.70018 6978 ft 256 kts 317°
2026-05-03 21:07 56.18756 36.67819 6974 ft 256 kts 317°
2026-05-03 21:07 56.20050 36.65646 6974 ft 256 kts 317°
2026-05-03 21:07 56.21352 36.63459 6973 ft 256 kts 317°
2026-05-03 21:08 56.22645 36.61283 6975 ft 258 kts 317°
2026-05-03 21:08 56.23960 36.59066 6974 ft 257 kts 317°
2026-05-03 21:08 56.25271 36.56852 6976 ft 258 kts 317°
2026-05-03 21:08 56.26564 36.54668 6976 ft 258 kts 317°
2026-05-03 21:09 56.27877 36.52448 6977 ft 258 kts 317°
2026-05-03 21:09 56.29209 36.50285 6934 ft 259 kts 323°
2026-05-03 21:09 56.30579 36.48263 6949 ft 257 kts 315°
2026-05-03 21:09 56.31809 36.45943 7202 ft 257 kts 315°
2026-05-03 21:10 56.33071 36.43681 7479 ft 258 kts 316°
2026-05-03 21:10 56.34379 36.41426 7760 ft 259 kts 317°
2026-05-03 21:10 56.35619 36.39079 8014 ft 259 kts 309°
2026-05-03 21:10 56.36608 36.36417 8272 ft 259 kts 300°
2026-05-03 21:11 56.37343 36.33404 8536 ft 260 kts 291°
2026-05-03 21:11 56.37938 36.30316 8807 ft 262 kts 291°
2026-05-03 21:11 56.38559 36.27235 9083 ft 263 kts 291°
2026-05-03 21:11 56.39205 36.24152 9371 ft 264 kts 292°
2026-05-03 21:12 56.39861 36.21050 9651 ft 266 kts 292°
2026-05-03 21:12 56.40514 36.17965 9926 ft 266 kts 292°
2026-05-03 21:12 56.41172 36.14851 10201 ft 267 kts 292°
2026-05-03 21:12 56.41839 36.11692 10487 ft 269 kts 292°
2026-05-03 21:13 56.42494 36.08581 10748 ft 269 kts 292°
2026-05-03 21:13 56.43165 36.05389 11030 ft 270 kts 292°
2026-05-03 21:13 56.43826 36.02240 11302 ft 271 kts 292°
2026-05-03 21:13 56.44497 35.99053 11570 ft 275 kts 294°
2026-05-03 21:14 56.45392 35.95892 11733 ft 291 kts 304°
2026-05-03 21:14 56.46650 35.92877 11914 ft 306 kts 310°
2026-05-03 21:14 56.48025 35.89861 12059 ft 322 kts 310°
2026-05-03 21:14 56.49503 35.86641 12257 ft 335 kts 310°
2026-05-03 21:15 56.50999 35.83390 12745 ft 339 kts 310°
2026-05-03 21:15 56.52493 35.80142 13317 ft 341 kts 310°
2026-05-03 21:15 56.54009 35.76844 13905 ft 344 kts 310°
2026-05-03 21:15 56.55539 35.73507 14498 ft 347 kts 310°
2026-05-03 21:16 56.57088 35.70127 15148 ft 349 kts 310°
2026-05-03 21:16 56.58629 35.66759 15779 ft 352 kts 310°
2026-05-03 21:16 56.60183 35.63357 16415 ft 354 kts 310°
2026-05-03 21:16 56.61759 35.59901 17025 ft 357 kts 310°
2026-05-03 21:17 56.63341 35.56430 17574 ft 361 kts 311°
2026-05-03 21:17 56.64402 35.54100 17961 ft 363 kts 311°
2026-05-03 21:17 56.66540 35.49401 18732 ft 366 kts 311°
2026-05-03 21:17 56.68179 35.45794 19267 ft 369 kts 311°
2026-05-03 21:18 56.69811 35.42195 19764 ft 373 kts 311°
2026-05-03 21:18 56.71445 35.38586 20309 ft 375 kts 311°
2026-05-03 21:18 56.73113 35.34897 20835 ft 377 kts 311°
2026-05-03 21:18 56.74912 35.31363 21283 ft 380 kts 311°
2026-05-03 21:19 56.76589 35.27616 21567 ft 389 kts 309°
2026-05-03 21:19 56.78280 35.23732 21569 ft 403 kts 309°
2026-05-03 21:19 56.80083 35.19627 21569 ft 416 kts 309°
2026-05-03 21:19 56.81923 35.15467 21575 ft 428 kts 309°
2026-05-03 21:20 56.83804 35.11230 21611 ft 438 kts 309°
2026-05-03 21:20 56.85715 35.06928 21880 ft 442 kts 310°
2026-05-03 21:20 56.87659 35.02553 22369 ft 441 kts 310°
2026-05-03 21:20 56.89597 34.98219 22860 ft 441 kts 311°
2026-05-03 21:21 56.91781 34.94326 23271 ft 442 kts 321°
2026-05-03 21:21 56.94276 34.91050 23564 ft 446 kts 326°
2026-05-03 21:21 56.96881 34.87898 23675 ft 453 kts 327°
2026-05-03 21:21 56.99500 34.84750 23845 ft 457 kts 327°
2026-05-03 21:22 57.02156 34.81560 24168 ft 458 kts 327°
2026-05-03 21:22 57.04816 34.78363 24557 ft 458 kts 327°
2026-05-03 21:22 57.07467 34.75173 24875 ft 459 kts 327°
2026-05-03 21:22 57.10122 34.71975 25040 ft 463 kts 326°
2026-05-03 21:23 57.12859 34.68673 25226 ft 466 kts 326°
2026-05-03 21:23 57.15527 34.65448 25506 ft 467 kts 326°
2026-05-03 21:23 57.18232 34.62176 25806 ft 467 kts 326°
2026-05-03 21:23 57.20942 34.58892 26047 ft 469 kts 326°
2026-05-03 21:24 57.23688 34.55557 26252 ft 471 kts 326°
2026-05-03 21:24 57.26419 34.52237 26439 ft 473 kts 326°
2026-05-03 21:24 57.29211 34.48834 26658 ft 474 kts 326°
2026-05-03 21:24 57.31941 34.45502 26873 ft 475 kts 326°
2026-05-03 21:25 57.34718 34.42106 27052 ft 477 kts 326°
2026-05-03 21:25 57.37487 34.38712 27224 ft 478 kts 326°
2026-05-03 21:25 57.40297 34.35263 27354 ft 480 kts 326°
2026-05-03 21:25 57.43069 34.31854 27442 ft 482 kts 325°
2026-05-03 21:26 57.45872 34.28399 27546 ft 483 kts 325°
2026-05-03 21:26 57.48676 34.24937 27682 ft 483 kts 325°
2026-05-03 21:26 57.51491 34.21454 27809 ft 483 kts 325°
2026-05-03 21:26 57.54252 34.18032 27902 ft 483 kts 324°
2026-05-03 21:27 57.57060 34.14545 27953 ft 484 kts 325°
2026-05-03 21:27 57.59847 34.11078 27961 ft 485 kts 324°
2026-05-03 21:27 57.62653 34.07581 27980 ft 486 kts 324°
2026-05-03 21:27 57.65441 34.04100 27986 ft 486 kts 324°
2026-05-03 21:28 57.71040 33.97091 28040 ft 486 kts 324°
2026-05-03 21:28 57.76643 33.90049 28032 ft 486 kts 324°
2026-05-03 21:29 57.82275 33.82943 28046 ft 486 kts 324°
2026-05-03 21:29 57.87825 33.75737 28030 ft 484 kts 321°
2026-05-03 21:30 57.93076 33.67822 28032 ft 483 kts 320°
2026-05-03 21:30 57.98304 33.59858 28051 ft 482 kts 319°
2026-05-03 21:31 58.03489 33.51936 28031 ft 483 kts 319°
2026-05-03 21:31 58.06118 33.47907 28165 ft 479 kts 319°
2026-05-03 21:31 58.08615 33.44081 28226 ft 454 kts 319°
2026-05-03 21:32 58.10990 33.40432 28133 ft 426 kts 319°
2026-05-03 21:32 58.13210 33.37007 28126 ft 398 kts 319°
2026-05-03 21:32 58.15300 33.33775 27845 ft 380 kts 318°
2026-05-03 21:32 58.17315 33.30646 27199 ft 371 kts 318°
2026-05-03 21:33 58.19283 33.27585 26533 ft 363 kts 318°
2026-05-03 21:33 58.21204 33.24596 25869 ft 355 kts 318°
2026-05-03 21:33 58.23072 33.21690 25212 ft 348 kts 318°
2026-05-03 21:33 58.24928 33.18798 24548 ft 342 kts 318°
2026-05-03 21:34 58.26738 33.15977 23892 ft 336 kts 318°
2026-05-03 21:34 58.28525 33.13190 23288 ft 329 kts 318°
2026-05-03 21:34 58.30259 33.10487 22797 ft 320 kts 318°
2026-05-03 21:34 58.31939 33.07863 22314 ft 311 kts 318°
2026-05-03 21:35 58.33585 33.05291 21838 ft 303 kts 318°
2026-05-03 21:35 58.35177 33.02801 21491 ft 289 kts 318°
2026-05-03 21:35 58.36695 33.00427 21297 ft 276 kts 317°
2026-05-03 21:35 58.37912 32.98519 21147 ft 272 kts 318°
2026-05-03 21:36 58.39375 32.96220 20970 ft 272 kts 318°
2026-05-03 21:36 58.40824 32.93944 20792 ft 271 kts 317°
2026-05-03 21:36 58.42275 32.91662 20613 ft 270 kts 317°
2026-05-03 21:36 58.43717 32.89392 20434 ft 269 kts 317°
2026-05-03 21:37 58.45153 32.87129 20254 ft 269 kts 317°
2026-05-03 21:37 58.46585 32.84869 20073 ft 268 kts 317°
2026-05-03 21:37 58.48024 32.82598 19899 ft 267 kts 317°
2026-05-03 21:37 58.49450 32.80343 19718 ft 265 kts 317°
2026-05-03 21:38 58.50855 32.78119 19541 ft 265 kts 317°
2026-05-03 21:38 58.52265 32.75883 19357 ft 263 kts 317°
2026-05-03 21:38 58.53678 32.73642 19179 ft 263 kts 317°
2026-05-03 21:38 58.55076 32.71421 19002 ft 262 kts 317°
2026-05-03 21:39 58.56469 32.69208 18819 ft 261 kts 317°
2026-05-03 21:39 58.57877 32.66967 18636 ft 261 kts 317°
2026-05-03 21:39 58.59261 32.64763 18457 ft 260 kts 317°
2026-05-03 21:39 58.60652 32.62545 18275 ft 259 kts 317°
2026-05-03 21:40 58.62033 32.60338 18096 ft 259 kts 317°
2026-05-03 21:40 58.63413 32.58133 17921 ft 259 kts 317°
2026-05-03 21:40 58.64784 32.55941 17734 ft 254 kts 317°
2026-05-03 21:40 58.66092 32.53849 17551 ft 242 kts 317°
2026-05-03 21:41 58.67364 32.51810 17369 ft 236 kts 317°
2026-05-03 21:41 58.68631 32.49773 17189 ft 234 kts 317°
2026-05-03 21:41 58.69858 32.47800 17009 ft 232 kts 317°
2026-05-03 21:41 58.71103 32.45797 16825 ft 232 kts 317°
2026-05-03 21:42 58.72326 32.43829 16648 ft 231 kts 317°
2026-05-03 21:42 58.73550 32.41857 16463 ft 230 kts 317°
2026-05-03 21:42 58.74785 32.39867 16281 ft 230 kts 317°
2026-05-03 21:42 58.76001 32.37904 16096 ft 230 kts 317°
2026-05-03 21:43 58.77220 32.35935 15910 ft 230 kts 317°
2026-05-03 21:43 58.78433 32.33976 15731 ft 223 kts 316°
2026-05-03 21:43 58.79577 32.32127 15563 ft 204 kts 316°
2026-05-03 21:43 58.80610 32.30451 15425 ft 191 kts 315°
2026-05-03 21:44 58.81628 32.28791 15299 ft 188 kts 316°
2026-05-03 21:44 58.82621 32.27177 15171 ft 187 kts 316°
2026-05-03 21:44 58.83614 32.25563 15048 ft 187 kts 316°
2026-05-03 21:44 58.84597 32.23966 14923 ft 187 kts 315°
2026-05-03 21:45 58.85591 32.22350 14795 ft 186 kts 315°
2026-05-03 21:45 58.86579 32.20741 14666 ft 185 kts 315°
2026-05-03 21:45 58.87552 32.19156 14543 ft 184 kts 315°
2026-05-03 21:45 58.88532 32.17556 14417 ft 184 kts 315°
2026-05-03 21:46 58.89501 32.15975 14288 ft 183 kts 315°
2026-05-03 21:46 58.90469 32.14395 14158 ft 183 kts 315°
2026-05-03 21:46 58.91436 32.12813 14028 ft 183 kts 315°
2026-05-03 21:46 58.92412 32.11217 13897 ft 182 kts 315°
2026-05-03 21:47 58.93372 32.09648 13769 ft 181 kts 315°
2026-05-03 21:47 58.94323 32.08089 13641 ft 180 kts 315°
2026-05-03 21:47 58.95280 32.06522 13521 ft 181 kts 315°
2026-05-03 21:47 58.96238 32.04950 13389 ft 181 kts 315°
2026-05-03 21:48 58.97197 32.03375 13258 ft 181 kts 315°
2026-05-03 21:48 58.98147 32.01815 13130 ft 180 kts 315°
2026-05-03 21:48 58.99103 32.00243 13002 ft 181 kts 315°
2026-05-03 21:48 59.00064 31.98663 12872 ft 180 kts 315°
2026-05-03 21:49 59.01006 31.97112 12749 ft 179 kts 315°
2026-05-03 21:49 59.01963 31.95535 12624 ft 179 kts 315°
2026-05-03 21:49 59.02916 31.93963 12494 ft 179 kts 315°
2026-05-03 21:49 59.03864 31.92400 12355 ft 179 kts 315°
2026-05-03 21:50 59.04799 31.90855 12231 ft 179 kts 315°
2026-05-03 21:50 59.05751 31.89282 12099 ft 178 kts 315°
2026-05-03 21:50 59.06680 31.87745 11972 ft 177 kts 315°
2026-05-03 21:50 59.07613 31.86201 11852 ft 177 kts 315°
2026-05-03 21:51 59.08545 31.84658 11724 ft 176 kts 315°
2026-05-03 21:51 59.09474 31.83118 11589 ft 175 kts 316°
2026-05-03 21:51 59.10403 31.81578 11456 ft 176 kts 315°
2026-05-03 21:51 59.11317 31.79964 11318 ft 175 kts 311°
2026-05-03 21:52 59.12176 31.78294 11198 ft 174 kts 312°
2026-05-03 21:52 59.13040 31.76646 11079 ft 174 kts 312°
2026-05-03 21:52 59.13907 31.75006 10941 ft 174 kts 312°
2026-05-03 21:52 59.14765 31.73382 10852 ft 173 kts 312°
2026-05-03 21:53 59.15633 31.71737 10842 ft 174 kts 312°
2026-05-03 21:53 59.16498 31.70099 10843 ft 174 kts 312°
2026-05-03 21:53 59.17363 31.68458 10844 ft 174 kts 313°
2026-05-03 21:53 59.18232 31.66809 10691 ft 176 kts 313°
2026-05-03 21:54 59.19109 31.65144 10491 ft 174 kts 313°
2026-05-03 21:54 59.19962 31.63521 10282 ft 173 kts 313°
2026-05-03 21:54 59.20826 31.61877 10086 ft 172 kts 313°
2026-05-03 21:54 59.21683 31.60245 9886 ft 172 kts 313°
2026-05-03 21:55 59.22537 31.58618 9768 ft 172 kts 313°
2026-05-03 21:55 59.23382 31.57007 9633 ft 172 kts 313°
2026-05-03 21:55 59.24240 31.55370 9498 ft 172 kts 312°
2026-05-03 21:55 59.25087 31.53753 9372 ft 171 kts 312°
2026-05-03 21:56 59.25934 31.52134 9232 ft 171 kts 312°
2026-05-03 21:56 59.26790 31.50497 9091 ft 171 kts 312°
2026-05-03 21:56 59.27630 31.48886 8959 ft 171 kts 313°
2026-05-03 21:56 59.28485 31.47248 8830 ft 171 kts 313°
2026-05-03 21:57 59.29331 31.45625 8705 ft 171 kts 313°
2026-05-03 21:57 59.30179 31.43997 8576 ft 171 kts 313°
2026-05-03 21:57 59.31028 31.42366 8435 ft 170 kts 313°
2026-05-03 21:57 59.31863 31.40760 8300 ft 171 kts 313°
2026-05-03 21:58 59.32716 31.39119 8164 ft 171 kts 313°
2026-05-03 21:58 59.33561 31.37494 8023 ft 170 kts 313°
2026-05-03 21:58 59.34405 31.35868 7891 ft 170 kts 312°
2026-05-03 21:58 59.35243 31.34250 7767 ft 170 kts 311°
2026-05-03 21:59 59.36085 31.32626 7642 ft 170 kts 311°
2026-05-03 21:59 59.36930 31.30992 7509 ft 169 kts 312°
2026-05-03 21:59 59.37755 31.29399 7377 ft 169 kts 311°
2026-05-03 21:59 59.38592 31.27779 7250 ft 169 kts 312°
2026-05-03 22:00 59.39425 31.26169 7119 ft 169 kts 312°
2026-05-03 22:00 59.40270 31.24531 6988 ft 169 kts 312°
2026-05-03 22:00 59.41101 31.22921 6859 ft 169 kts 312°
2026-05-03 22:00 59.41938 31.21296 6736 ft 169 kts 312°
2026-05-03 22:01 59.42773 31.19676 6614 ft 169 kts 312°
2026-05-03 22:01 59.43606 31.18057 6484 ft 169 kts 313°
2026-05-03 22:01 59.44445 31.16427 6357 ft 169 kts 313°
2026-05-03 22:01 59.45278 31.14807 6248 ft 169 kts 313°
2026-05-03 22:02 59.46111 31.13184 6143 ft 169 kts 313°
2026-05-03 22:02 59.46939 31.11571 6025 ft 169 kts 313°
2026-05-03 22:02 59.47780 31.09933 5884 ft 168 kts 313°
2026-05-03 22:02 59.48600 31.08334 5749 ft 168 kts 313°
2026-05-03 22:03 59.49429 31.06714 5620 ft 167 kts 313°
2026-05-03 22:03 59.50258 31.05093 5494 ft 167 kts 313°
2026-05-03 22:03 59.51079 31.03488 5366 ft 167 kts 313°
2026-05-03 22:03 59.51895 31.01888 5237 ft 167 kts 312°
2026-05-03 22:04 59.52654 31.00142 5090 ft 167 kts 309°
2026-05-03 22:04 59.53401 30.98398 4963 ft 167 kts 310°
2026-05-03 22:04 59.54156 30.96669 4840 ft 167 kts 310°
2026-05-03 22:04 59.54915 30.94935 4706 ft 168 kts 310°
2026-05-03 22:05 59.55677 30.93192 4569 ft 167 kts 310°
2026-05-03 22:05 59.56436 30.91453 4438 ft 168 kts 310°
2026-05-03 22:05 59.57200 30.89704 4303 ft 168 kts 310°
2026-05-03 22:05 59.57950 30.87984 4175 ft 168 kts 310°
2026-05-03 22:06 59.58721 30.86214 4045 ft 168 kts 311°
2026-05-03 22:06 59.59479 30.84473 3915 ft 168 kts 311°
2026-05-03 22:06 59.60242 30.82719 3792 ft 168 kts 311°
2026-05-03 22:06 59.61001 30.80974 3681 ft 168 kts 311°
2026-05-03 22:07 59.61759 30.79230 3577 ft 168 kts 311°
2026-05-03 22:07 59.62515 30.77489 3475 ft 168 kts 311°
2026-05-03 22:07 59.63284 30.75715 3366 ft 168 kts 311°
2026-05-03 22:07 59.64036 30.73981 3261 ft 168 kts 311°
2026-05-03 22:08 59.64792 30.72235 3159 ft 168 kts 312°
2026-05-03 22:08 59.65560 30.70461 3054 ft 168 kts 312°
2026-05-03 22:08 59.66319 30.68706 2951 ft 169 kts 312°
2026-05-03 22:08 59.67157 30.67102 2861 ft 169 kts 320°
2026-05-03 22:09 59.68051 30.65573 2748 ft 169 kts 321°
2026-05-03 22:09 59.68944 30.64059 2643 ft 169 kts 321°
2026-05-03 22:09 59.69830 30.62558 2537 ft 169 kts 321°
2026-05-03 22:10 59.71605 30.59549 2322 ft 169 kts 321°
2026-05-03 22:10 59.72497 30.58034 2217 ft 168 kts 321°
2026-05-03 22:10 59.73361 30.56456 2099 ft 168 kts 315°
2026-05-03 22:10 59.74127 30.54721 1994 ft 167 kts 310°
2026-05-03 22:11 59.74815 30.52859 1976 ft 167 kts 305°
2026-05-03 22:11 59.75404 30.50875 1976 ft 168 kts 299°
2026-05-03 22:11 59.75885 30.48801 1969 ft 163 kts 294°
2026-05-03 22:11 59.76262 30.46755 1977 ft 157 kts 291°
2026-05-03 22:12 59.76605 30.44718 1978 ft 155 kts 290°
2026-05-03 22:12 59.76917 30.42710 1979 ft 153 kts 289°
2026-05-03 22:12 59.77295 30.40665 1748 ft 159 kts 300°
2026-05-03 22:12 59.77791 30.38733 1431 ft 156 kts 292°
2026-05-03 22:13 59.78128 30.36716 1092 ft 156 kts 291°
2026-05-03 22:13 59.78668 30.34871 749 ft 156 kts 311°
2026-05-03 22:13 59.79395 30.33370 529 ft 144 kts 310°
2026-05-03 22:13 59.80089 30.31825 557 ft 162 kts 311°
2026-05-03 22:14 59.80606 30.29840 1104 ft 161 kts 291°
2026-05-03 22:14 59.81209 30.28285 1982 ft 148 kts 346°
2026-05-03 22:14 59.82315 30.27711 1961 ft 165 kts 337°
2026-05-03 22:14 59.83463 30.27103 2252 ft 170 kts
2026-05-03 22:15 59.84431 30.28233 2960 ft 167 kts 59°
2026-05-03 22:15 59.84393 30.30340 3195 ft 187 kts 144°
2026-05-03 22:15 59.83276 30.31685 3028 ft 175 kts 162°
2026-05-03 22:15 59.82127 30.32289 3611 ft 172 kts 181°
2026-05-03 22:16 59.80905 30.32315 4076 ft 175 kts 195°
2026-05-03 22:16 59.79903 30.31272 4759 ft 170 kts 211°
2026-05-03 22:16 59.78817 30.30148 4624 ft 174 kts 227°
2026-05-03 22:16 59.78129 30.28156 4893 ft 189 kts 230°
2026-05-03 22:17 59.77129 30.26720 5277 ft 170 kts 220°
2026-05-03 22:17 59.76055 30.25629 5495 ft 178 kts 214°
2026-05-03 22:17 59.74963 30.24328 5377 ft 193 kts 207°
2026-05-03 22:17 59.73671 30.23661 4994 ft 190 kts 198°
2026-05-03 22:18 59.72403 30.23132 4687 ft 188 kts 198°
2026-05-03 22:18 59.71124 30.22579 4378 ft 189 kts 198°
2026-05-03 22:18 59.69840 30.22012 4068 ft 187 kts 198°
2026-05-03 22:18 59.68581 30.21450 3979 ft 188 kts 198°
2026-05-03 22:19 59.67314 30.20877 3967 ft 188 kts 198°
2026-05-03 22:19 59.66038 30.20293 3963 ft 188 kts 198°
2026-05-03 22:19 59.64777 30.19716 3959 ft 188 kts 198°
2026-05-03 22:19 59.63497 30.19130 3956 ft 187 kts 198°
2026-05-03 22:20 59.62232 30.18555 3958 ft 187 kts 198°
2026-05-03 22:20 59.60957 30.17972 3960 ft 188 kts 198°
2026-05-03 22:20 59.59697 30.17394 3961 ft 188 kts 198°
2026-05-03 22:20 59.58395 30.17077 3917 ft 192 kts 176°
2026-05-03 22:21 59.57188 30.18187 3902 ft 198 kts 140°
2026-05-03 22:21 59.56450 30.20482 3948 ft 201 kts 119°
2026-05-03 22:21 59.55867 30.22982 3966 ft 200 kts 118°
2026-05-03 22:21 59.55290 30.25475 3973 ft 200 kts 117°
2026-05-03 22:22 59.54715 30.27961 3975 ft 199 kts 117°
2026-05-03 22:22 59.54145 30.30443 3972 ft 200 kts 115°
2026-05-03 22:22 59.53880 30.33120 3962 ft 200 kts 97°
2026-05-03 22:22 59.53779 30.35861 4069 ft 201 kts 96°
2026-05-03 22:23 59.53680 30.38625 4191 ft 201 kts 96°
2026-05-03 22:23 59.53583 30.41376 4315 ft 203 kts 96°
2026-05-03 22:23 59.53485 30.44131 4443 ft 203 kts 96°
2026-05-03 22:23 59.53386 30.46922 4567 ft 205 kts 96°
2026-05-03 22:24 59.53287 30.49728 4693 ft 205 kts 96°
2026-05-03 22:24 59.53190 30.52527 4809 ft 206 kts 96°
2026-05-03 22:24 59.53092 30.55341 4933 ft 207 kts 96°
2026-05-03 22:24 59.52994 30.58171 4967 ft 208 kts 96°
2026-05-03 22:25 59.52897 30.61011 4970 ft 208 kts 96°
2026-05-03 22:25 59.52800 30.63845 4963 ft 208 kts 96°
2026-05-03 22:25 59.52784 30.66704 4774 ft 208 kts 80°
2026-05-03 22:25 59.53416 30.69180 4517 ft 202 kts 45°
2026-05-03 22:26 59.54572 30.70550 4266 ft 194 kts 13°
2026-05-03 22:26 59.55896 30.70625 4082 ft 189 kts 354°
2026-05-03 22:26 59.57191 30.70341 3950 ft 189 kts 353°
2026-05-03 22:26 59.58503 30.70040 3818 ft 189 kts 353°
2026-05-03 22:27 59.59792 30.69738 3688 ft 188 kts 353°
2026-05-03 22:27 59.61096 30.69425 3558 ft 188 kts 353°
2026-05-03 22:27 59.62388 30.69107 3426 ft 187 kts 353°
2026-05-03 22:27 59.63663 30.68783 3293 ft 187 kts 353°
2026-05-03 22:28 59.64951 30.68439 3162 ft 186 kts 353°
2026-05-03 22:28 59.66219 30.68066 3024 ft 186 kts 348°
2026-05-03 22:28 59.67424 30.67187 2879 ft 183 kts 335°
2026-05-03 22:28 59.68560 30.66051 2789 ft 184 kts 334°
2026-05-03 22:29 59.69685 30.64926 2709 ft 183 kts 334°
2026-05-03 22:29 59.70826 30.63788 2629 ft 184 kts 335°
2026-05-03 22:29 59.71953 30.62664 2547 ft 184 kts 335°
2026-05-03 22:29 59.73099 30.61520 2464 ft 183 kts 335°
2026-05-03 22:30 59.74244 30.60376 2383 ft 183 kts 334°
2026-05-03 22:30 59.75349 30.59125 2274 ft 183 kts 321°
2026-05-03 22:30 59.76081 30.57173 2128 ft 179 kts 295°
2026-05-03 22:30 59.76464 30.54806 2022 ft 174 kts 288°
2026-05-03 22:31 59.76780 30.52628 1965 ft 159 kts 288°
2026-05-03 22:31 59.77090 30.50554 1969 ft 153 kts 289°
2026-05-03 22:31 59.77362 30.48544 1969 ft 149 kts 287°
2026-05-03 22:31 59.77652 30.46571 1801 ft 149 kts 289°
2026-05-03 22:32 59.77954 30.44610 1599 ft 148 kts 289°
2026-05-03 22:32 59.78248 30.42657 1399 ft 147 kts 289°
2026-05-03 22:32 59.78540 30.40727 1198 ft 147 kts 289°
2026-05-03 22:32 59.78832 30.38792 996 ft 147 kts 289°
2026-05-03 22:33 59.79127 30.36835 791 ft 146 kts 289°
2026-05-03 22:33 59.79416 30.34916 591 ft 146 kts 288°
2026-05-03 22:33 59.79697 30.33052 396 ft 146 kts 288°
2026-05-03 22:33 59.79984 30.31142 199 ft 145 kts 288°
2026-05-03 22:34 59.80284 30.29242 76 ft 133 kts 291°
2026-05-03 22:34 59.80496 30.27779 77 ft 93 kts 288°
2026-05-03 22:34 59.80657 30.26781 78 ft 57 kts 287°
2026-05-03 22:34 59.80734 30.26197 78 ft 38 kts 272°
2026-05-03 22:35 59.80797 30.25707 77 ft 35 kts 290°
2026-05-03 22:35 59.80880 30.25269 77 ft 30 kts 285°
2026-05-03 22:35 59.80916 30.24984 76 ft 18 kts 283°
2026-05-03 22:35 59.80942 30.24751 75 ft 12 kts 270°
2026-05-03 22:36 59.80908 30.24606 75 ft 11 kts 215°
2026-05-03 22:36 59.80848 30.24585 76 ft 1 kts 173°
2026-05-03 22:36 59.80846 30.24585 76 ft 0 kts 172°
2026-05-03 22:38 59.80839 30.24587 76 ft 1 kts 171°
2026-05-03 22:38 59.80833 30.24590 76 ft 0 kts 168°
2026-05-03 22:38 59.80828 30.24592 76 ft 0 kts 167°
2026-05-03 22:38 59.80805 30.24605 77 ft 6 kts 163°
2026-05-03 22:39 59.80747 30.24650 78 ft 9 kts 132°
2026-05-03 22:39 59.80715 30.24768 79 ft 9 kts 109°
2026-05-03 22:39 59.80693 30.24894 79 ft 9 kts 107°
2026-05-03 22:39 59.80676 30.25011 80 ft 8 kts 106°
2026-05-03 22:40 59.80658 30.25127 80 ft 8 kts 106°
2026-05-03 22:40 59.80640 30.25253 79 ft 10 kts 106°
2026-05-03 22:40 59.80620 30.25388 79 ft 10 kts 106°
2026-05-03 22:40 59.80600 30.25525 79 ft 10 kts 106°
2026-05-03 22:41 59.80580 30.25659 79 ft 10 kts 107°
2026-05-03 22:41 59.80557 30.25791 79 ft 10 kts 109°
2026-05-03 22:41 59.80534 30.25921 79 ft 9 kts 109°
2026-05-03 22:41 59.80515 30.26050 79 ft 9 kts 102°
2026-05-03 22:42 59.80500 30.26182 79 ft 9 kts 104°
2026-05-03 22:42 59.80478 30.26310 80 ft 9 kts 110°
2026-05-03 22:42 59.80449 30.26426 80 ft 8 kts 135°
2026-05-03 22:42 59.80399 30.26459 81 ft 7 kts 184°
2026-05-03 22:43 59.80349 30.26445 81 ft 6 kts 187°
2026-05-03 22:43 59.80304 30.26425 82 ft 5 kts 211°
2026-05-03 22:43 59.80291 30.26355 82 ft 6 kts 274°
2026-05-03 22:43 59.80299 30.26279 82 ft 1 kts 284°
2026-05-03 22:44 59.80302 30.26259 82 ft 1 kts 284°
2026-05-03 22:44 59.80304 30.26243 82 ft 0 kts 285°